contact:dominique.lefevre@mio.osupytheas.fr, maurice.libes@osupytheas.fr, didier.mallarino@osupytheas.fr
Project:EMSO http://www.emso-fr.org/EMSO-France
Depth: 2436.0 m
Title:EMSO Ligure Ouest : Data MII capteur MICROCAT
DateTime_Computer,Latitude,Longitude,Temperature,Conductivity,Pressure,DateTime_Instrument
DateTime_Computer,Latitude,Longitude,degC,S m-1,dbar,DateTime_Instrument
2017-12-04T00:02:35Z,42.805,6.029,13.2935,4.59952,2472.01,2017-12-04T02:04:04Z
2017-12-04T00:05:38Z,42.805,6.029,13.2935,4.59952,2471.987,2017-12-04T02:07:07Z
2017-12-04T00:08:41Z,42.805,6.029,13.2938,4.59952,2472.002,2017-12-04T02:10:10Z
2017-12-04T00:11:43Z,42.805,6.029,13.2939,4.59953,2472.01,2017-12-04T02:13:12Z
2017-12-04T00:14:46Z,42.805,6.029,13.2935,4.59952,2471.964,2017-12-04T02:16:15Z
2017-12-04T00:17:49Z,42.805,6.029,13.2937,4.59952,2471.987,2017-12-04T02:19:18Z
2017-12-04T00:20:52Z,42.805,6.029,13.2934,4.59952,2472.024,2017-12-04T02:22:21Z
2017-12-04T00:23:55Z,42.805,6.029,13.2938,4.59951,2472.01,2017-12-04T02:25:24Z
2017-12-04T00:26:58Z,42.805,6.029,13.2938,4.59952,2472.002,2017-12-04T02:28:27Z
2017-12-04T00:30:01Z,42.805,6.029,13.2934,4.59953,2472.024,2017-12-04T02:31:30Z
2017-12-04T00:33:04Z,42.805,6.029,13.2933,4.59952,2471.987,2017-12-04T02:34:33Z
2017-12-04T00:36:07Z,42.805,6.029,13.2938,4.59951,2471.987,2017-12-04T02:37:36Z
2017-12-04T00:39:09Z,42.805,6.029,13.2935,4.59951,2472.01,2017-12-04T02:40:38Z
2017-12-04T00:42:12Z,42.805,6.029,13.2932,4.59951,2471.942,2017-12-04T02:43:41Z
2017-12-04T00:45:15Z,42.805,6.029,13.2935,4.59950,2472.002,2017-12-04T02:46:44Z
2017-12-04T00:48:18Z,42.805,6.029,13.2935,4.59950,2472.01,2017-12-04T02:49:47Z
2017-12-04T00:51:21Z,42.805,6.029,13.2934,4.59950,2472.002,2017-12-04T02:52:50Z
2017-12-04T00:54:24Z,42.805,6.029,13.2932,4.59949,2471.979,2017-12-04T02:55:53Z
2017-12-04T00:57:27Z,42.805,6.029,13.2938,4.59950,2472.002,2017-12-04T02:58:56Z
2017-12-04T01:00:30Z,42.805,6.029,13.2935,4.59949,2471.987,2017-12-04T03:01:59Z
2017-12-04T01:03:33Z,42.805,6.029,13.2935,4.59951,2472.002,2017-12-04T03:05:02Z
2017-12-04T01:06:35Z,42.805,6.029,13.2933,4.59949,2471.979,2017-12-04T03:08:04Z
2017-12-04T01:09:38Z,42.805,6.029,13.2934,4.59948,2471.964,2017-12-04T03:11:07Z
2017-12-04T01:12:41Z,42.805,6.029,13.2935,4.59948,2471.979,2017-12-04T03:14:10Z
2017-12-04T01:15:44Z,42.805,6.029,13.2932,4.59947,2472.002,2017-12-04T03:17:13Z
2017-12-04T01:18:47Z,42.805,6.029,13.2936,4.59948,2471.987,2017-12-04T03:20:16Z
2017-12-04T01:21:50Z,42.805,6.029,13.2935,4.59948,2472.002,2017-12-04T03:23:19Z
2017-12-04T01:24:53Z,42.805,6.029,13.2932,4.59949,2471.964,2017-12-04T03:26:22Z
2017-12-04T01:27:56Z,42.805,6.029,13.2931,4.59947,2471.964,2017-12-04T03:29:25Z
2017-12-04T01:30:59Z,42.805,6.029,13.2930,4.59947,2471.964,2017-12-04T03:32:28Z
2017-12-04T01:34:01Z,42.805,6.029,13.2934,4.59947,2471.987,2017-12-04T03:35:30Z
2017-12-04T01:37:04Z,42.805,6.029,13.2929,4.59947,2471.979,2017-12-04T03:38:33Z
2017-12-04T01:40:07Z,42.805,6.029,13.2933,4.59947,2471.957,2017-12-04T03:41:36Z
2017-12-04T01:43:10Z,42.805,6.029,13.2933,4.59946,2471.987,2017-12-04T03:44:39Z
2017-12-04T01:46:13Z,42.805,6.029,13.2932,4.59946,2471.964,2017-12-04T03:47:42Z
2017-12-04T01:49:16Z,42.805,6.029,13.2928,4.59946,2471.964,2017-12-04T03:50:45Z
2017-12-04T01:52:19Z,42.805,6.029,13.2934,4.59944,2471.987,2017-12-04T03:53:48Z
2017-12-04T01:55:22Z,42.805,6.029,13.2931,4.59944,2471.942,2017-12-04T03:56:51Z
2017-12-04T01:58:25Z,42.805,6.029,13.2932,4.59944,2472.024,2017-12-04T03:59:53Z
2017-12-04T02:01:27Z,42.805,6.029,13.2929,4.59944,2472.002,2017-12-04T04:02:56Z
2017-12-04T02:04:30Z,42.805,6.029,13.2933,4.59944,2471.979,2017-12-04T04:05:59Z
2017-12-04T02:07:33Z,42.805,6.029,13.2928,4.59944,2471.979,2017-12-04T04:09:02Z
2017-12-04T02:10:36Z,42.805,6.029,13.2932,4.59944,2471.964,2017-12-04T04:12:05Z
2017-12-04T02:13:39Z,42.805,6.029,13.2930,4.59944,2472.002,2017-12-04T04:15:08Z
2017-12-04T02:16:42Z,42.805,6.029,13.2934,4.59944,2472.002,2017-12-04T04:18:11Z
2017-12-04T02:19:45Z,42.805,6.029,13.2931,4.59943,2471.942,2017-12-04T04:21:14Z
2017-12-04T02:22:48Z,42.805,6.029,13.2933,4.59944,2471.979,2017-12-04T04:24:17Z
2017-12-04T02:25:51Z,42.805,6.029,13.2932,4.59943,2471.964,2017-12-04T04:27:19Z
2017-12-04T02:28:53Z,42.805,6.029,13.2932,4.59944,2471.979,2017-12-04T04:30:22Z
2017-12-04T02:31:56Z,42.805,6.029,13.2932,4.59944,2471.979,2017-12-04T04:33:25Z
2017-12-04T02:34:59Z,42.805,6.029,13.2930,4.59944,2471.979,2017-12-04T04:36:28Z
2017-12-04T02:38:02Z,42.805,6.029,13.2932,4.59943,2471.964,2017-12-04T04:39:31Z
2017-12-04T02:41:05Z,42.805,6.029,13.2932,4.59943,2471.964,2017-12-04T04:42:34Z
2017-12-04T02:44:08Z,42.805,6.029,13.2929,4.59943,2471.979,2017-12-04T04:45:37Z
2017-12-04T02:47:11Z,42.805,6.029,13.2928,4.59942,2471.979,2017-12-04T04:48:40Z
2017-12-04T02:50:14Z,42.805,6.029,13.2937,4.59942,2471.942,2017-12-04T04:51:43Z
2017-12-04T02:53:16Z,42.805,6.029,13.2929,4.59943,2471.957,2017-12-04T04:54:45Z
2017-12-04T02:56:19Z,42.805,6.029,13.2933,4.59943,2471.987,2017-12-04T04:57:48Z
2017-12-04T02:59:22Z,42.805,6.029,13.2935,4.59944,2472.002,2017-12-04T05:00:51Z
2017-12-04T03:02:25Z,42.805,6.029,13.2931,4.59942,2471.987,2017-12-04T05:03:54Z
2017-12-04T03:05:28Z,42.805,6.029,13.2933,4.59942,2471.987,2017-12-04T05:06:57Z
2017-12-04T03:08:31Z,42.805,6.029,13.2936,4.59942,2471.979,2017-12-04T05:10:00Z
2017-12-04T03:11:34Z,42.805,6.029,13.2933,4.59942,2471.979,2017-12-04T05:13:03Z
2017-12-04T03:14:37Z,42.805,6.029,13.2934,4.59943,2472.002,2017-12-04T05:16:06Z
2017-12-04T03:17:40Z,42.805,6.029,13.2928,4.59944,2472.024,2017-12-04T05:19:09Z
2017-12-04T03:20:42Z,42.805,6.029,13.2933,4.59942,2472.002,2017-12-04T05:22:11Z
2017-12-04T03:23:45Z,42.805,6.029,13.2932,4.59944,2472.01,2017-12-04T05:25:14Z
2017-12-04T03:26:48Z,42.805,6.029,13.2930,4.59942,2471.979,2017-12-04T05:28:17Z
2017-12-04T03:29:51Z,42.805,6.029,13.2932,4.59943,2472.024,2017-12-04T05:31:20Z
2017-12-04T03:32:54Z,42.805,6.029,13.2933,4.59942,2472.024,2017-12-04T05:34:23Z
2017-12-04T03:35:57Z,42.805,6.029,13.2929,4.59943,2472.01,2017-12-04T05:37:26Z
2017-12-04T03:39:00Z,42.805,6.029,13.2929,4.59944,2472.032,2017-12-04T05:40:29Z
2017-12-04T03:42:03Z,42.805,6.029,13.2929,4.59942,2472.055,2017-12-04T05:43:32Z
2017-12-04T03:45:06Z,42.805,6.029,13.2931,4.59943,2472.032,2017-12-04T05:46:35Z
2017-12-04T03:48:08Z,42.805,6.029,13.2931,4.59942,2472.047,2017-12-04T05:49:37Z
2017-12-04T03:51:11Z,42.805,6.029,13.2932,4.59944,2472.047,2017-12-04T05:52:40Z
2017-12-04T03:54:14Z,42.805,6.029,13.2929,4.59944,2472.055,2017-12-04T05:55:43Z
2017-12-04T03:57:17Z,42.805,6.029,13.2935,4.59943,2472.069,2017-12-04T05:58:46Z
2017-12-04T04:00:20Z,42.805,6.029,13.2932,4.59943,2472.055,2017-12-04T06:01:49Z
2017-12-04T04:03:23Z,42.805,6.029,13.2930,4.59944,2472.069,2017-12-04T06:04:52Z
2017-12-04T04:06:26Z,42.805,6.029,13.2930,4.59943,2472.055,2017-12-04T06:07:55Z
2017-12-04T04:09:29Z,42.805,6.029,13.2933,4.59943,2472.069,2017-12-04T06:10:58Z
2017-12-04T04:12:32Z,42.805,6.029,13.2932,4.59944,2472.092,2017-12-04T06:14:01Z
2017-12-04T04:15:34Z,42.805,6.029,13.2933,4.59943,2472.055,2017-12-04T06:17:03Z
2017-12-04T04:18:37Z,42.805,6.029,13.2928,4.59943,2472.055,2017-12-04T06:20:06Z
2017-12-04T04:21:40Z,42.805,6.029,13.2928,4.59944,2472.092,2017-12-04T06:23:09Z
2017-12-04T04:24:43Z,42.805,6.029,13.2931,4.59943,2472.092,2017-12-04T06:26:12Z
2017-12-04T04:27:46Z,42.805,6.029,13.2932,4.59943,2472.092,2017-12-04T06:29:15Z
2017-12-04T04:30:49Z,42.805,6.029,13.2931,4.59942,2472.115,2017-12-04T06:32:18Z
2017-12-04T04:33:52Z,42.805,6.029,13.2931,4.59943,2472.115,2017-12-04T06:35:21Z
2017-12-04T04:36:55Z,42.805,6.029,13.2931,4.59944,2472.137,2017-12-04T06:38:24Z
2017-12-04T04:39:58Z,42.805,6.029,13.2929,4.59944,2472.115,2017-12-04T06:41:27Z
2017-12-04T04:43:00Z,42.805,6.029,13.2935,4.59943,2472.123,2017-12-04T06:44:29Z
2017-12-04T04:46:03Z,42.805,6.029,13.2932,4.59944,2472.137,2017-12-04T06:47:32Z
2017-12-04T04:49:06Z,42.805,6.029,13.2927,4.59943,2472.1,2017-12-04T06:50:35Z
2017-12-04T04:52:09Z,42.805,6.029,13.2931,4.59942,2472.137,2017-12-04T06:53:38Z
2017-12-04T04:55:12Z,42.805,6.029,13.2931,4.59943,2472.115,2017-12-04T06:56:41Z
2017-12-04T04:58:15Z,42.805,6.029,13.2933,4.59943,2472.123,2017-12-04T06:59:44Z
2017-12-04T05:01:18Z,42.805,6.029,13.2930,4.59943,2472.16,2017-12-04T07:02:47Z
2017-12-04T05:04:21Z,42.805,6.029,13.2927,4.59944,2472.145,2017-12-04T07:05:50Z
2017-12-04T05:07:24Z,42.805,6.029,13.2931,4.59943,2472.137,2017-12-04T07:08:52Z
2017-12-04T05:10:26Z,42.805,6.029,13.2928,4.59943,2472.168,2017-12-04T07:11:55Z
2017-12-04T05:13:29Z,42.805,6.029,13.2932,4.59943,2472.145,2017-12-04T07:14:58Z
2017-12-04T05:16:32Z,42.805,6.029,13.2933,4.59943,2472.123,2017-12-04T07:18:01Z
2017-12-04T05:19:35Z,42.805,6.029,13.2932,4.59943,2472.16,2017-12-04T07:21:04Z
2017-12-04T05:22:38Z,42.805,6.029,13.2933,4.59943,2472.145,2017-12-04T07:24:07Z
2017-12-04T05:25:41Z,42.805,6.029,13.2931,4.59943,2472.19,2017-12-04T07:27:10Z
2017-12-04T05:28:44Z,42.805,6.029,13.2930,4.59943,2472.16,2017-12-04T07:30:13Z
2017-12-04T05:31:47Z,42.805,6.029,13.2931,4.59943,2472.168,2017-12-04T07:33:16Z
2017-12-04T05:34:50Z,42.805,6.029,13.2932,4.59944,2472.205,2017-12-04T07:36:18Z
2017-12-04T05:37:52Z,42.805,6.029,13.2931,4.59943,2472.213,2017-12-04T07:39:21Z
2017-12-04T05:40:55Z,42.805,6.029,13.2932,4.59943,2472.19,2017-12-04T07:42:24Z
2017-12-04T05:43:58Z,42.805,6.029,13.2930,4.59942,2472.19,2017-12-04T07:45:27Z
2017-12-04T05:47:01Z,42.805,6.029,13.2933,4.59947,2472.145,2017-12-04T07:48:30Z
2017-12-04T05:50:04Z,42.805,6.029,13.2933,4.59944,2472.19,2017-12-04T07:51:33Z
2017-12-04T05:53:07Z,42.805,6.029,13.2930,4.59943,2472.213,2017-12-04T07:54:36Z
2017-12-04T05:56:10Z,42.805,6.029,13.2933,4.59944,2472.168,2017-12-04T07:57:39Z
2017-12-04T05:59:13Z,42.805,6.029,13.2932,4.59944,2472.205,2017-12-04T08:00:42Z
2017-12-04T06:02:15Z,42.805,6.029,13.2929,4.59943,2472.205,2017-12-04T08:03:44Z
2017-12-04T06:05:18Z,42.805,6.029,13.2930,4.59943,2472.227,2017-12-04T08:06:47Z
2017-12-04T06:08:21Z,42.805,6.029,13.2932,4.59944,2472.182,2017-12-04T08:09:50Z
2017-12-04T06:11:24Z,42.805,6.029,13.2933,4.59943,2472.19,2017-12-04T08:12:53Z
2017-12-04T06:14:27Z,42.805,6.029,13.2933,4.59944,2472.227,2017-12-04T08:15:56Z
2017-12-04T06:17:30Z,42.805,6.029,13.2932,4.59947,2472.213,2017-12-04T08:18:59Z
2017-12-04T06:20:33Z,42.805,6.029,13.2930,4.59944,2472.19,2017-12-04T08:22:02Z
2017-12-04T06:23:36Z,42.805,6.029,13.2932,4.59945,2472.205,2017-12-04T08:25:05Z
2017-12-04T06:26:39Z,42.805,6.029,13.2931,4.59944,2472.227,2017-12-04T08:28:08Z
2017-12-04T06:29:41Z,42.805,6.029,13.2933,4.59946,2472.236,2017-12-04T08:31:10Z
2017-12-04T06:32:44Z,42.805,6.029,13.2932,4.59946,2472.236,2017-12-04T08:34:13Z
2017-12-04T06:35:47Z,42.805,6.029,13.2931,4.59948,2472.25,2017-12-04T08:37:16Z
2017-12-04T06:38:50Z,42.805,6.029,13.2931,4.59948,2472.227,2017-12-04T08:40:19Z
2017-12-04T06:41:53Z,42.805,6.029,13.2933,4.59946,2472.227,2017-12-04T08:43:22Z
2017-12-04T06:44:56Z,42.805,6.029,13.2931,4.59947,2472.227,2017-12-04T08:46:25Z
2017-12-04T06:47:59Z,42.805,6.029,13.2933,4.59947,2472.25,2017-12-04T08:49:28Z
2017-12-04T06:51:02Z,42.805,6.029,13.2931,4.59947,2472.213,2017-12-04T08:52:31Z
2017-12-04T06:54:05Z,42.805,6.029,13.2935,4.59948,2472.236,2017-12-04T08:55:34Z
2017-12-04T06:57:07Z,42.805,6.029,13.2933,4.59946,2472.213,2017-12-04T08:58:36Z
2017-12-04T07:00:10Z,42.805,6.029,13.2935,4.59947,2472.25,2017-12-04T09:01:39Z
2017-12-04T07:03:13Z,42.805,6.029,13.2936,4.59946,2472.25,2017-12-04T09:04:42Z
2017-12-04T07:06:16Z,42.805,6.029,13.2933,4.59948,2472.227,2017-12-04T09:07:45Z
2017-12-04T07:09:19Z,42.805,6.029,13.2933,4.59946,2472.25,2017-12-04T09:10:48Z
2017-12-04T07:12:22Z,42.805,6.029,13.2932,4.59946,2472.25,2017-12-04T09:13:51Z
2017-12-04T07:15:25Z,42.805,6.029,13.2933,4.59947,2472.272,2017-12-04T09:16:54Z
2017-12-04T07:18:28Z,42.805,6.029,13.2934,4.59946,2472.25,2017-12-04T09:19:57Z
2017-12-04T07:21:31Z,42.805,6.029,13.2937,4.59946,2472.236,2017-12-04T09:23:00Z
2017-12-04T07:24:33Z,42.805,6.029,13.2932,4.59947,2472.236,2017-12-04T09:26:02Z
2017-12-04T07:27:36Z,42.805,6.029,13.2935,4.59947,2472.213,2017-12-04T09:29:05Z
2017-12-04T07:30:39Z,42.805,6.029,13.2933,4.59946,2472.25,2017-12-04T09:32:08Z
2017-12-04T07:33:42Z,42.805,6.029,13.2928,4.59946,2472.236,2017-12-04T09:35:11Z
2017-12-04T07:36:45Z,42.805,6.029,13.2935,4.59947,2472.25,2017-12-04T09:38:14Z
2017-12-04T07:39:48Z,42.805,6.029,13.2929,4.59946,2472.25,2017-12-04T09:41:17Z
2017-12-04T07:42:51Z,42.805,6.029,13.2934,4.59948,2472.236,2017-12-04T09:44:20Z
2017-12-04T07:45:54Z,42.805,6.029,13.2933,4.59947,2472.19,2017-12-04T09:47:23Z
2017-12-04T07:48:57Z,42.805,6.029,13.2934,4.59948,2472.236,2017-12-04T09:50:26Z
2017-12-04T07:51:59Z,42.805,6.029,13.2938,4.59948,2472.227,2017-12-04T09:53:28Z
2017-12-04T07:55:02Z,42.805,6.029,13.2935,4.59948,2472.265,2017-12-04T09:56:31Z
2017-12-04T07:58:05Z,42.805,6.029,13.2937,4.59948,2472.25,2017-12-04T09:59:34Z
2017-12-04T08:01:08Z,42.805,6.029,13.2931,4.59948,2472.25,2017-12-04T10:02:37Z
2017-12-04T08:04:11Z,42.805,6.029,13.2932,4.59950,2472.236,2017-12-04T10:05:40Z
2017-12-04T08:07:14Z,42.805,6.029,13.2935,4.59949,2472.213,2017-12-04T10:08:43Z
2017-12-04T08:10:17Z,42.805,6.029,13.2933,4.59948,2472.227,2017-12-04T10:11:46Z
2017-12-04T08:13:20Z,42.805,6.029,13.2934,4.59948,2472.213,2017-12-04T10:14:49Z
2017-12-04T08:16:23Z,42.805,6.029,13.2939,4.59949,2472.227,2017-12-04T10:17:52Z
2017-12-04T08:19:25Z,42.805,6.029,13.2937,4.59949,2472.272,2017-12-04T10:20:54Z
2017-12-04T08:22:28Z,42.805,6.029,13.2933,4.59949,2472.236,2017-12-04T10:23:57Z
2017-12-04T08:25:31Z,42.805,6.029,13.2935,4.59950,2472.258,2017-12-04T10:27:00Z
2017-12-04T08:28:34Z,42.805,6.029,13.2932,4.59950,2472.227,2017-12-04T10:30:03Z
2017-12-04T08:31:37Z,42.805,6.029,13.2933,4.59950,2472.227,2017-12-04T10:33:06Z
2017-12-04T08:34:40Z,42.805,6.029,13.2935,4.59950,2472.227,2017-12-04T10:36:09Z
2017-12-04T08:37:43Z,42.805,6.029,13.2935,4.59951,2472.25,2017-12-04T10:39:12Z
2017-12-04T08:40:46Z,42.805,6.029,13.2937,4.59949,2472.272,2017-12-04T10:42:15Z
2017-12-04T08:43:49Z,42.805,6.029,13.2932,4.59950,2472.272,2017-12-04T10:45:18Z
2017-12-04T08:46:51Z,42.805,6.029,13.2928,4.59950,2472.213,2017-12-04T10:48:20Z
2017-12-04T08:49:54Z,42.805,6.029,13.2936,4.59950,2472.227,2017-12-04T10:51:23Z
2017-12-04T08:52:57Z,42.805,6.029,13.2935,4.59949,2472.25,2017-12-04T10:54:26Z
2017-12-04T08:56:00Z,42.805,6.029,13.2932,4.59950,2472.227,2017-12-04T10:57:29Z
2017-12-04T08:59:03Z,42.805,6.029,13.2932,4.59950,2472.227,2017-12-04T11:00:32Z
2017-12-04T09:02:06Z,42.805,6.029,13.2936,4.59949,2472.227,2017-12-04T11:03:35Z
2017-12-04T09:05:09Z,42.805,6.029,13.2935,4.59951,2472.227,2017-12-04T11:06:38Z
2017-12-04T09:08:12Z,42.805,6.029,13.2935,4.59949,2472.236,2017-12-04T11:09:41Z
2017-12-04T09:11:15Z,42.805,6.029,13.2936,4.59950,2472.227,2017-12-04T11:12:44Z
2017-12-04T09:14:17Z,42.805,6.029,13.2933,4.59952,2472.19,2017-12-04T11:15:46Z
2017-12-04T09:17:20Z,42.805,6.029,13.2939,4.59950,2472.213,2017-12-04T11:18:49Z
2017-12-04T09:20:23Z,42.805,6.029,13.2932,4.59950,2472.227,2017-12-04T11:21:52Z
2017-12-04T09:23:26Z,42.805,6.029,13.2935,4.59950,2472.205,2017-12-04T11:24:55Z
2017-12-04T09:26:29Z,42.805,6.029,13.2936,4.59950,2472.19,2017-12-04T11:27:58Z
2017-12-04T09:29:32Z,42.805,6.029,13.2938,4.59950,2472.227,2017-12-04T11:31:01Z
2017-12-04T09:32:35Z,42.805,6.029,13.2933,4.59950,2472.227,2017-12-04T11:34:04Z
2017-12-04T09:35:38Z,42.805,6.029,13.2934,4.59950,2472.19,2017-12-04T11:37:07Z
2017-12-04T09:38:41Z,42.805,6.029,13.2939,4.59950,2472.19,2017-12-04T11:40:10Z
2017-12-04T09:41:43Z,42.805,6.029,13.2937,4.59950,2472.19,2017-12-04T11:43:12Z
2017-12-04T09:44:46Z,42.805,6.029,13.2938,4.59950,2472.205,2017-12-04T11:46:15Z
2017-12-04T09:47:49Z,42.805,6.029,13.2935,4.59950,2472.227,2017-12-04T11:49:18Z
2017-12-04T09:50:52Z,42.805,6.029,13.2935,4.59950,2472.19,2017-12-04T11:52:21Z
2017-12-04T09:53:55Z,42.805,6.029,13.2932,4.59950,2472.19,2017-12-04T11:55:24Z
2017-12-04T09:56:58Z,42.805,6.029,13.2935,4.59950,2472.213,2017-12-04T11:58:27Z
2017-12-04T10:00:01Z,42.805,6.029,13.2933,4.59950,2472.182,2017-12-04T12:01:30Z
2017-12-04T10:03:04Z,42.805,6.029,13.2934,4.59950,2472.205,2017-12-04T12:04:33Z
2017-12-04T10:06:07Z,42.805,6.029,13.2935,4.59951,2472.182,2017-12-04T12:07:36Z
2017-12-04T10:09:10Z,42.805,6.029,13.2937,4.59951,2472.168,2017-12-04T12:10:39Z
2017-12-04T10:12:12Z,42.805,6.029,13.2936,4.59951,2472.182,2017-12-04T12:13:41Z
2017-12-04T10:15:15Z,42.805,6.029,13.2937,4.59951,2472.182,2017-12-04T12:16:44Z
2017-12-04T10:18:18Z,42.805,6.029,13.2936,4.59951,2472.182,2017-12-04T12:19:47Z
2017-12-04T10:21:21Z,42.805,6.029,13.2935,4.59952,2472.145,2017-12-04T12:22:50Z
2017-12-04T10:24:24Z,42.805,6.029,13.2936,4.59953,2472.182,2017-12-04T12:25:53Z
2017-12-04T10:27:27Z,42.805,6.029,13.2936,4.59952,2472.182,2017-12-04T12:28:56Z
2017-12-04T10:30:30Z,42.805,6.029,13.2935,4.59951,2472.182,2017-12-04T12:31:59Z
2017-12-04T10:33:33Z,42.805,6.029,13.2936,4.59954,2472.182,2017-12-04T12:35:02Z
2017-12-04T10:36:36Z,42.805,6.029,13.2935,4.59951,2472.205,2017-12-04T12:38:05Z
2017-12-04T10:39:38Z,42.805,6.029,13.2933,4.59952,2472.182,2017-12-04T12:41:07Z
2017-12-04T10:42:41Z,42.805,6.029,13.2935,4.59952,2472.168,2017-12-04T12:44:10Z
2017-12-04T10:45:44Z,42.805,6.029,13.2934,4.59952,2472.168,2017-12-04T12:47:13Z
2017-12-04T10:48:47Z,42.805,6.029,13.2935,4.59952,2472.145,2017-12-04T12:50:16Z
2017-12-04T10:51:50Z,42.805,6.029,13.2937,4.59952,2472.137,2017-12-04T12:53:19Z
2017-12-04T10:54:53Z,42.805,6.029,13.2939,4.59952,2472.137,2017-12-04T12:56:22Z
2017-12-04T10:57:56Z,42.805,6.029,13.2939,4.59953,2472.145,2017-12-04T12:59:25Z
2017-12-04T11:00:59Z,42.805,6.029,13.2937,4.59952,2472.145,2017-12-04T13:02:28Z
2017-12-04T11:04:02Z,42.805,6.029,13.2939,4.59952,2472.145,2017-12-04T13:05:31Z
2017-12-04T11:07:04Z,42.805,6.029,13.2935,4.59953,2472.137,2017-12-04T13:08:33Z
2017-12-04T11:10:07Z,42.805,6.029,13.2935,4.59953,2472.137,2017-12-04T13:11:36Z
2017-12-04T11:13:10Z,42.805,6.029,13.2937,4.59953,2472.168,2017-12-04T13:14:39Z
2017-12-04T11:16:13Z,42.805,6.029,13.2936,4.59953,2472.137,2017-12-04T13:17:42Z
2017-12-04T11:19:16Z,42.805,6.029,13.2933,4.59953,2472.137,2017-12-04T13:20:45Z
2017-12-04T11:22:19Z,42.805,6.029,13.2935,4.59952,2472.16,2017-12-04T13:23:48Z
2017-12-04T11:25:22Z,42.805,6.029,13.2935,4.59953,2472.123,2017-12-04T13:26:51Z
2017-12-04T11:28:25Z,42.805,6.029,13.2935,4.59953,2472.123,2017-12-04T13:29:54Z
2017-12-04T11:31:28Z,42.805,6.029,13.2939,4.59952,2472.1,2017-12-04T13:32:57Z
2017-12-04T11:34:30Z,42.805,6.029,13.2939,4.59953,2472.137,2017-12-04T13:35:59Z
2017-12-04T11:37:33Z,42.805,6.029,13.2935,4.59953,2472.137,2017-12-04T13:39:02Z
2017-12-04T11:40:36Z,42.805,6.029,13.2939,4.59953,2472.145,2017-12-04T13:42:05Z
2017-12-04T11:43:39Z,42.805,6.029,13.2940,4.59953,2472.16,2017-12-04T13:45:08Z
2017-12-04T11:46:42Z,42.805,6.029,13.2940,4.59953,2472.137,2017-12-04T13:48:11Z
2017-12-04T11:49:45Z,42.805,6.029,13.2938,4.59953,2472.115,2017-12-04T13:51:14Z
2017-12-04T11:52:48Z,42.805,6.029,13.2937,4.59953,2472.077,2017-12-04T13:54:17Z
2017-12-04T11:55:51Z,42.805,6.029,13.2935,4.59953,2472.115,2017-12-04T13:57:20Z
2017-12-04T11:58:54Z,42.805,6.029,13.2934,4.59953,2472.1,2017-12-04T14:00:23Z
2017-12-04T12:01:57Z,42.805,6.029,13.2937,4.59953,2472.092,2017-12-04T14:03:26Z
2017-12-04T12:04:59Z,42.805,6.029,13.2934,4.59952,2472.1,2017-12-04T14:06:28Z
2017-12-04T12:08:02Z,42.805,6.029,13.2938,4.59952,2472.077,2017-12-04T14:09:31Z
2017-12-04T12:11:05Z,42.805,6.029,13.2936,4.59952,2472.077,2017-12-04T14:12:34Z
2017-12-04T12:14:08Z,42.805,6.029,13.2939,4.59953,2472.055,2017-12-04T14:15:37Z
2017-12-04T12:17:11Z,42.805,6.029,13.2937,4.59953,2472.115,2017-12-04T14:18:40Z
2017-12-04T12:20:14Z,42.805,6.029,13.2939,4.59953,2472.077,2017-12-04T14:21:43Z
2017-12-04T12:23:17Z,42.805,6.029,13.2935,4.59953,2472.092,2017-12-04T14:24:46Z
2017-12-04T12:26:20Z,42.805,6.029,13.2941,4.59953,2472.092,2017-12-04T14:27:49Z
2017-12-04T12:29:23Z,42.805,6.029,13.2935,4.59952,2472.092,2017-12-04T14:30:52Z
2017-12-04T12:32:25Z,42.805,6.029,13.2935,4.59953,2472.092,2017-12-04T14:33:54Z
2017-12-04T12:35:28Z,42.805,6.029,13.2935,4.59953,2472.069,2017-12-04T14:36:57Z
2017-12-04T12:38:31Z,42.805,6.029,13.2942,4.59952,2472.069,2017-12-04T14:40:00Z
2017-12-04T12:41:34Z,42.805,6.029,13.2935,4.59952,2472.047,2017-12-04T14:43:03Z
2017-12-04T12:44:37Z,42.805,6.029,13.2939,4.59952,2472.032,2017-12-04T14:46:06Z
2017-12-04T12:47:40Z,42.805,6.029,13.2936,4.59952,2472.055,2017-12-04T14:49:09Z
2017-12-04T12:50:43Z,42.805,6.029,13.2936,4.59953,2472.069,2017-12-04T14:52:12Z
2017-12-04T12:53:46Z,42.805,6.029,13.2933,4.59952,2472.055,2017-12-04T14:55:15Z
2017-12-04T12:56:49Z,42.805,6.029,13.2936,4.59953,2472.077,2017-12-04T14:58:18Z
2017-12-04T12:59:51Z,42.805,6.029,13.2937,4.59953,2472.107,2017-12-04T15:01:20Z
2017-12-04T13:02:54Z,42.805,6.029,13.2937,4.59952,2472.055,2017-12-04T15:04:23Z
2017-12-04T13:05:57Z,42.805,6.029,13.2936,4.59952,2472.069,2017-12-04T15:07:26Z
2017-12-04T13:09:00Z,42.805,6.029,13.2939,4.59953,2472.032,2017-12-04T15:10:29Z
2017-12-04T13:12:03Z,42.805,6.029,13.2935,4.59952,2472.024,2017-12-04T15:13:32Z
2017-12-04T13:15:06Z,42.805,6.029,13.2938,4.59952,2472.032,2017-12-04T15:16:35Z
2017-12-04T13:18:09Z,42.805,6.029,13.2935,4.59952,2472.047,2017-12-04T15:19:38Z
2017-12-04T13:21:12Z,42.805,6.029,13.2937,4.59954,2472.032,2017-12-04T15:22:41Z
2017-12-04T13:24:15Z,42.805,6.029,13.2934,4.59952,2472.047,2017-12-04T15:25:44Z
2017-12-04T13:27:18Z,42.805,6.029,13.2935,4.59951,2472.092,2017-12-04T15:28:47Z
2017-12-04T13:30:20Z,42.805,6.029,13.2933,4.59951,2472.01,2017-12-04T15:31:49Z
2017-12-04T13:33:23Z,42.805,6.029,13.2937,4.59952,2472.069,2017-12-04T15:34:52Z
2017-12-04T13:36:26Z,42.805,6.029,13.2938,4.59951,2472.032,2017-12-04T15:37:55Z
2017-12-04T13:39:29Z,42.805,6.029,13.2940,4.59952,2472.01,2017-12-04T15:40:58Z
2017-12-04T13:42:32Z,42.805,6.029,13.2933,4.59952,2472.047,2017-12-04T15:44:01Z
2017-12-04T13:45:35Z,42.805,6.029,13.2935,4.59950,2472.01,2017-12-04T15:47:04Z
2017-12-04T13:48:38Z,42.805,6.029,13.2936,4.59950,2472.024,2017-12-04T15:50:07Z
2017-12-04T13:51:41Z,42.805,6.029,13.2938,4.59950,2472.002,2017-12-04T15:53:10Z
2017-12-04T13:54:44Z,42.805,6.029,13.2932,4.59950,2471.987,2017-12-04T15:56:13Z
2017-12-04T13:57:46Z,42.805,6.029,13.2936,4.59950,2472.032,2017-12-04T15:59:15Z
2017-12-04T14:00:49Z,42.805,6.029,13.2939,4.59950,2472.01,2017-12-04T16:02:18Z
2017-12-04T14:03:52Z,42.805,6.029,13.2936,4.59950,2472.024,2017-12-04T16:05:21Z
2017-12-04T14:06:55Z,42.805,6.029,13.2936,4.59950,2472.024,2017-12-04T16:08:24Z
2017-12-04T14:09:58Z,42.805,6.029,13.2938,4.59950,2471.987,2017-12-04T16:11:27Z
2017-12-04T14:13:01Z,42.805,6.029,13.2937,4.59950,2472.047,2017-12-04T16:14:30Z
2017-12-04T14:16:04Z,42.805,6.029,13.2933,4.59950,2472.01,2017-12-04T16:17:33Z
2017-12-04T14:19:07Z,42.805,6.029,13.2937,4.59950,2472.01,2017-12-04T16:20:36Z
2017-12-04T14:22:10Z,42.805,6.029,13.2939,4.59950,2472.01,2017-12-04T16:23:39Z
2017-12-04T14:25:12Z,42.805,6.029,13.2934,4.59950,2472.002,2017-12-04T16:26:41Z
2017-12-04T14:28:15Z,42.805,6.029,13.2932,4.59950,2472.024,2017-12-04T16:29:44Z
2017-12-04T14:31:18Z,42.805,6.029,13.2940,4.59950,2472.024,2017-12-04T16:32:47Z
2017-12-04T14:34:21Z,42.805,6.029,13.2933,4.59950,2472.024,2017-12-04T16:35:50Z
2017-12-04T14:37:24Z,42.805,6.029,13.2937,4.59950,2472.024,2017-12-04T16:38:53Z
2017-12-04T14:40:27Z,42.805,6.029,13.2933,4.59950,2472.002,2017-12-04T16:41:56Z
2017-12-04T14:43:30Z,42.805,6.029,13.2936,4.59950,2471.987,2017-12-04T16:44:59Z
2017-12-04T14:46:33Z,42.805,6.029,13.2936,4.59950,2472.002,2017-12-04T16:48:02Z
2017-12-04T14:49:36Z,42.805,6.029,13.2937,4.59950,2472.002,2017-12-04T16:51:05Z
2017-12-04T14:52:38Z,42.805,6.029,13.2933,4.59950,2472.024,2017-12-04T16:54:07Z
2017-12-04T14:55:41Z,42.805,6.029,13.2935,4.59950,2471.987,2017-12-04T16:57:10Z
2017-12-04T14:58:44Z,42.805,6.029,13.2935,4.59950,2472.002,2017-12-04T17:00:13Z